OAW223 EDDM-LSGG

Flight info

Callsign OAW223
Flight time 0h 50m
Altitude 24000
Route ALG2S/26L ALG Y109 UMTEX DCT BERSU DCT GEVEA STAR LSGG
Aircraft E295/M-VGDW/C

Departure

Time 2026-05-04 08:24
Airport Munich Airport (EDDM)

Arrival

Time 2026-05-04 09:14
Airport Geneva International Airport (LSGG)
Time Latitude Longitude Altitude Speed Heading
2026-05-04 07:54 48.35007 11.79861 1473 ft 0 kts 352°
2026-05-04 08:16 48.35057 11.79851 1468 ft 10 kts 352°
2026-05-04 08:16 48.35107 11.79754 1473 ft 16 kts 262°
2026-05-04 08:17 48.35046 11.79659 1470 ft 12 kts 179°
2026-05-04 08:17 48.34971 11.79671 1464 ft 10 kts 171°
2026-05-04 08:17 48.34905 11.79685 1470 ft 10 kts 172°
2026-05-04 08:17 48.34821 11.79713 1466 ft 15 kts 144°
2026-05-04 08:19 48.34572 11.80269 1470 ft 0 kts 173°
2026-05-04 08:20 48.34546 11.80273 1477 ft 7 kts 174°
2026-05-04 08:20 48.34470 11.80276 1477 ft 7 kts 199°
2026-05-04 08:20 48.34466 11.80265 1477 ft 1 kts 258°
2026-05-04 08:21 48.34467 11.80262 1470 ft 0 kts 266°
2026-05-04 08:22 48.34467 11.80259 1471 ft 5 kts 266°
2026-05-04 08:24 48.33308 11.64576 6562 ft 275 kts 263°
2026-05-04 08:24 48.33170 11.62674 7038 ft 275 kts 263°
2026-05-04 08:24 48.32894 11.59815 7764 ft 276 kts 255°
2026-05-04 08:24 48.32314 11.57055 8501 ft 277 kts 249°
2026-05-04 08:25 48.31641 11.54334 9243 ft 278 kts 248°
2026-05-04 08:25 48.30950 11.51642 10005 ft 280 kts 247°
2026-05-04 08:25 48.29998 11.47987 10955 ft 281 kts 247°
2026-05-04 08:25 48.29528 11.46163 11430 ft 283 kts 247°
2026-05-04 08:26 48.28909 11.43745 12079 ft 285 kts 247°
2026-05-04 08:27 48.23601 11.22188 16939 ft 372 kts 249°
2026-05-04 08:28 48.22711 11.18518 17494 ft 375 kts 249°
2026-05-04 08:28 48.21822 11.14842 18046 ft 379 kts 250°
2026-05-04 08:28 48.20929 11.11143 18574 ft 382 kts 250°
2026-05-04 08:28 48.20017 11.07379 19065 ft 385 kts 250°
2026-05-04 08:29 48.19094 11.03564 19577 ft 388 kts 250°
2026-05-04 08:29 48.18178 10.99778 20081 ft 392 kts 250°
2026-05-04 08:29 48.17234 10.95900 20603 ft 395 kts 250°
2026-05-04 08:31 48.10956 10.70250 23835 ft 438 kts 249°
2026-05-04 08:33 48.03212 10.40385 24049 ft 437 kts 248°
2026-05-04 08:33 48.02123 10.36182 24045 ft 437 kts 249°
2026-05-04 08:35 47.94830 10.06405 24047 ft 436 kts 249°
2026-05-04 08:35 47.93776 10.02154 24046 ft 436 kts 249°
2026-05-04 08:35 47.92729 9.97952 24049 ft 435 kts 249°
2026-05-04 08:35 47.91666 9.93697 24041 ft 435 kts 249°
2026-05-04 08:37 47.85276 9.68387 24037 ft 435 kts 248°
2026-05-04 08:37 47.84207 9.64206 24048 ft 435 kts 247°
2026-05-04 08:37 47.82876 9.60132 24038 ft 435 kts 241°
2026-05-04 08:38 47.81383 9.56212 24046 ft 435 kts 239°
2026-05-04 08:38 47.79834 9.52336 24044 ft 435 kts 238°
2026-05-04 08:38 47.78275 9.48517 24047 ft 435 kts 238°
2026-05-04 08:40 47.67199 9.21733 24042 ft 435 kts 237°
2026-05-04 08:40 47.65606 9.17882 24044 ft 434 kts 237°
2026-05-04 08:40 47.64036 9.14085 24043 ft 434 kts 237°
2026-05-04 08:41 47.62444 9.10236 24040 ft 435 kts 237°
2026-05-04 08:41 47.60885 9.06463 24043 ft 435 kts 237°
2026-05-04 08:41 47.59296 9.02627 24045 ft 435 kts 237°
2026-05-04 08:41 47.57711 8.98802 24037 ft 434 kts 237°
2026-05-04 08:42 47.56128 8.94985 24039 ft 434 kts 237°
2026-05-04 08:42 47.54566 8.91222 24043 ft 434 kts 237°
2026-05-04 08:42 47.52977 8.87400 24041 ft 434 kts 237°
2026-05-04 08:42 47.51392 8.83592 24045 ft 434 kts 237°
2026-05-04 08:43 47.49803 8.79778 24051 ft 434 kts 237°
2026-05-04 08:43 47.48222 8.75988 24049 ft 433 kts 237°
2026-05-04 08:43 47.46652 8.72231 23985 ft 435 kts 237°
2026-05-04 08:43 47.45050 8.68401 23564 ft 435 kts 237°
2026-05-04 08:44 47.43465 8.64614 23067 ft 430 kts 237°
2026-05-04 08:44 47.41907 8.60898 22585 ft 427 kts 237°
2026-05-04 08:46 47.32142 8.37684 19407 ft 329 kts 236°
2026-05-04 08:46 47.30836 8.34613 18981 ft 380 kts 236°
2026-05-04 08:46 47.29419 8.31290 18555 ft 379 kts 236°
2026-05-04 08:46 47.28035 8.28041 18101 ft 375 kts 236°
2026-05-04 08:47 47.26660 8.24811 17631 ft 373 kts 236°
2026-05-04 08:47 47.25284 8.21581 17162 ft 369 kts 237°
2026-05-04 08:47 47.23923 8.18389 16698 ft 365 kts 237°
2026-05-04 08:47 47.22591 8.15267 16340 ft 361 kts 237°
2026-05-04 08:48 47.21254 8.12137 16188 ft 359 kts 237°
2026-05-04 08:48 47.19937 8.09055 16115 ft 359 kts 237°
2026-05-04 08:48 47.18604 8.05936 16078 ft 358 kts 237°
2026-05-04 08:48 47.17273 8.02821 16059 ft 358 kts 237°
2026-05-04 08:49 47.15941 7.99709 16048 ft 358 kts 237°
2026-05-04 08:50 47.07664 7.81740 16025 ft 358 kts 234°
2026-05-04 08:50 47.06236 7.78717 16022 ft 358 kts 234°
2026-05-04 08:51 47.04808 7.75705 16026 ft 358 kts 234°
2026-05-04 08:51 47.03396 7.72729 16022 ft 358 kts 234°
2026-05-04 08:51 47.01966 7.69717 16026 ft 358 kts 234°
2026-05-04 08:51 47.00560 7.66755 16028 ft 358 kts 234°
2026-05-04 08:52 46.99129 7.63750 16021 ft 357 kts 234°
2026-05-04 08:52 46.97717 7.60789 16023 ft 357 kts 234°
2026-05-04 08:52 46.96291 7.57798 16020 ft 357 kts 234°
2026-05-04 08:52 46.94866 7.54818 16022 ft 357 kts 234°
2026-05-04 08:53 46.93446 7.51856 16016 ft 356 kts 234°
2026-05-04 08:54 46.83472 7.31098 16023 ft 356 kts 233°
2026-05-04 08:55 46.82055 7.28160 16024 ft 355 kts 233°
2026-05-04 08:55 46.80643 7.25234 16023 ft 355 kts 233°
2026-05-04 08:55 46.79213 7.22279 16025 ft 355 kts 233°
2026-05-04 08:55 46.77781 7.19323 16026 ft 355 kts 233°
2026-05-04 08:57 46.67800 6.98809 16026 ft 356 kts 233°
2026-05-04 09:01 46.46431 6.64518 11514 ft 245 kts 224°
2026-05-04 09:01 46.45245 6.62775 11071 ft 244 kts 224°
2026-05-04 09:01 46.44054 6.61021 10631 ft 242 kts 223°
2026-05-04 09:01 46.42949 6.59180 10211 ft 242 kts 236°
2026-05-04 09:02 46.42157 6.57024 9757 ft 244 kts 240°
2026-05-04 09:02 46.41418 6.54812 9285 ft 243 kts 240°
2026-05-04 09:02 46.40688 6.52637 8829 ft 242 kts 240°
2026-05-04 09:02 46.39927 6.50455 8360 ft 242 kts 239°
2026-05-04 09:03 46.39153 6.48290 7901 ft 241 kts 245°
2026-05-04 09:03 46.38981 6.45895 7507 ft 251 kts 283°
2026-05-04 09:03 46.39906 6.43779 7268 ft 254 kts 323°
2026-05-04 09:03 46.41562 6.42899 7166 ft 257 kts
2026-05-04 09:04 46.43254 6.43587 7105 ft 258 kts 31°
2026-05-04 09:04 46.44820 6.44840 7070 ft 255 kts 31°
2026-05-04 09:04 46.46075 6.46549 7080 ft 251 kts 66°
2026-05-04 09:04 46.46434 6.48970 7059 ft 244 kts 102°
2026-05-04 09:05 46.45708 6.51094 7062 ft 239 kts 141°
2026-05-04 09:05 46.44265 6.51990 7052 ft 223 kts 182°
2026-05-04 09:05 46.42834 6.51209 7086 ft 224 kts 223°
2026-05-04 09:05 46.42218 6.49305 7073 ft 209 kts 261°
2026-05-04 09:06 46.42130 6.47179 7051 ft 210 kts 266°
2026-05-04 09:07 46.39652 6.34141 5541 ft 185 kts 229°
2026-05-04 09:08 46.38762 6.32797 5275 ft 184 kts 222°
2026-05-04 09:08 46.37823 6.31533 4973 ft 183 kts 222°
2026-05-04 09:08 46.36947 6.30282 4742 ft 169 kts 226°
2026-05-04 09:08 46.36198 6.29116 4561 ft 150 kts 226°
2026-05-04 09:09 46.35482 6.28031 4370 ft 150 kts 225°
2026-05-04 09:09 46.34741 6.26966 4148 ft 148 kts 224°
2026-05-04 09:09 46.34014 6.25916 3932 ft 146 kts 225°
2026-05-04 09:09 46.33311 6.24873 3752 ft 146 kts 226°
2026-05-04 09:10 46.32602 6.23813 3565 ft 146 kts 225°
2026-05-04 09:10 46.31888 6.22768 3363 ft 144 kts 225°
2026-05-04 09:10 46.31182 6.21739 3170 ft 144 kts 225°
2026-05-04 09:10 46.30480 6.20702 2975 ft 143 kts 226°
2026-05-04 09:11 46.29794 6.19686 2774 ft 142 kts 225°
2026-05-04 09:11 46.29103 6.18676 2577 ft 142 kts 225°
2026-05-04 09:11 46.28404 6.17654 2372 ft 142 kts 226°
2026-05-04 09:11 46.27721 6.16649 2172 ft 140 kts 225°
2026-05-04 09:12 46.27034 6.15672 1985 ft 138 kts 225°
2026-05-04 09:12 46.26367 6.14680 1805 ft 135 kts 226°
2026-05-04 09:14 46.23610 6.10735 1399 ft 19 kts 199°
2026-05-04 09:14 46.23476 6.10680 1400 ft 11 kts 195°
2026-05-04 09:14 46.23434 6.10661 1403 ft 8 kts 199°
2026-05-04 09:14 46.23390 6.10627 1403 ft 8 kts 215°
2026-05-04 09:15 46.23333 6.10549 1403 ft 14 kts 226°
2026-05-04 09:15 46.23270 6.10538 1408 ft 8 kts 141°
2026-05-04 09:15 46.23217 6.10611 1400 ft 10 kts 136°
2026-05-04 09:15 46.23172 6.10649 1402 ft 6 kts 172°
2026-05-04 09:17 46.23125 6.10702 1404 ft 0 kts 136°